Regional Weather Roundup
Issued by NWS

Home | Current Version | Previous Version | Graphics & Text | Print | Product List | Glossary On
Versions: 1 2 3 4 5 6 7 8 9 10 11 12 13 14 15 16 17 18 19 20 21 22 23 24 25 26 27 28 29 30 31 32 33 34 35 36 37 38 39 40 41 42 43 44 45 46 47 48 49 50
000
ASUS43 KFSD 301510
RWRSD

WEATHER ROUNDUP FOR SOUTH DAKOTA
NATIONAL WEATHER SERVICE SIOUX FALLS SD
1000 AM CDT THU JUL 30 2015

NOTE: "FAIR" INDICATES FEW OR NO CLOUDS BELOW 12,000 FEET WITH NO
SIGNIFICANT WEATHER AND/OR OBSTRUCTIONS TO VISIBILITY.


SDZ001>005-009-010-012>017-301600-
NORTHWEST AND NORTH CENTRAL SOUTH DAKOTA

CITY           SKY/WX    TMP DP  RH WIND       PRES   REMARKS
BUFFALO          N/A     72  48  42 S3        30.17S
FAITH            N/A     75  45  34 W6        30.21S
MOBRIDGE       SUNNY     72  56  57 W3        30.14R
$$

SDZ012>016-024>037-041>051-057-063-072>074-301600-
SOUTHWEST AND SOUTH CENTRAL SOUTH DAKOTA

CITY           SKY/WX    TMP DP  RH WIND       PRES   REMARKS
RAPID CTY ARPT SUNNY     74  52  46 NW5       30.26R
PIERRE         SUNNY     74  58  57 NW3       30.15S
CUSTER         SUNNY     72  38  29 N3        30.39S
ELLSWORTH AFB  SUNNY     74  50  42 NW5       30.25S
PHILIP         SUNNY     73  54  51 W8        30.20R
PINE RIDGE     SUNNY     70  53  54 W3        30.27S
SPEARFISH      FAIR      73  45  35 W6        30.31S
WINNER         FAIR      77  54  44 W6        30.18F
$$

SDZ004>011-016>023-039-040-301600-
NORTHEAST SOUTH DAKOTA

CITY           SKY/WX    TMP DP  RH WIND       PRES   REMARKS
ABERDEEN       SUNNY     72  61  68 S5        30.13R
WATERTOWN      SUNNY     74  57  55 W5        30.14S
BROOKINGS      SUNNY     73  59  60 NW5       30.16S
SISSETON         N/A     77  58  51 NW10      30.09R
$$

SDZ017-020-022-023-036>040-048>070-301600-
SOUTHEAST SOUTH DAKOTA

CITY           SKY/WX    TMP DP  RH WIND       PRES   REMARKS
SIOUX FALLS    MOSUNNY   76  60  57 W5        30.15R
HURON          SUNNY     73  57  57 N3        30.13S
CHAMBERLAIN    SUNNY     73  57  57 SW6       30.16F
MITCHELL       SUNNY     73  58  59 CALM      30.15S
YANKTON        SUNNY     77  57  50 W15       30.16R
$$

ABBREVIATIONS USED IN REMARKS
   TC - TEMPERATURE IN CELSIUS
  WCI - WIND CHILL INDEX
   HX - HEAT INDEX
  VSB - VISIBILITY



USA.gov is the U.S. government's official web portal to all federal, state and local government web resources and services.